Rabat-Sale, Morocco

12:30 PM WEST on August 30, 2016 (GMT +0100)
Sale

Weather History for GMME - December, 2012

Change the Weather History Date:

Tuesday, December 11, 2012

  Actual Average Record
Temperature  
Mean Temperature 56 °F -  
Max Temperature 66 °F 62 °F 71 °F (2001)
Min Temperature 46 °F 45 °F 40 °F (2014)
Degree Days  
Heating Degree Days 9    
Growing Degree Days 6 (Base 50)    
Moisture  
Dew Point 50 °F    
Average Humidity 86    
Maximum Humidity 100    
Minimum Humidity 52    
Precipitation  
Precipitation 0.00 in 0.12 in - ()
Sea Level Pressure  
Sea Level Pressure 30.07 in    
Wind  
Wind Speed 1 mph ()    
Max Wind Speed 7 mph    
Max Gust Speed -    
Visibility 3.0 miles    
Events      
Averages and records for this station are not official NWS values.
T = Trace of Precipitation, MM = Missing Value Source: Averaged Metar Reports

Daily Weather History Graph

Daily Weather History Graph

Search for Another Location

Airport or City:

Trip Planner

Search our weather history database for the weather conditions in past years. The results will help you decide how hot, cold, wet, or windy it might be!

Date:

Astronomy

Dec. 11, 2012 Rise Set
Actual Time 7:22 AM WET 5:18 PM WET
Civil Twilight 6:54 AM WET 5:45 PM WET
Nautical Twilight 6:23 AM WET 6:17 PM WET
Astronomical Twilight 5:53 AM WET 6:47 PM WET
Moon 5:04 AM WET (12/11) 3:42 PM WET (12/11)
Length of Visible Light 10h 51m
Length of Day
9h 55m
Waning Crescent, 5% of the Moon is Illuminated
Dec 11
Waning Crescent
Dec 13
New
Dec 20
First Quarter
Dec 28
Full
Jan 5
Last Quarter

Hourly Weather History & Observations

Time (WET) Temp. Dew Point Humidity Pressure Visibility Wind Dir Wind Speed Gust Speed Precip Events Conditions
12:00 AM 50 °F 48 °F 92% 30.13 in 1 mi Calm Calm - -   Mist
12:00 AM 50.0 °F 48.2 °F 94% 30.12 in 0.9 mi Calm Calm - N/A   Scattered Clouds
12:30 AM 48.2 °F 46.4 °F 93% 30.12 in 0.9 mi Calm Calm - N/A   Scattered Clouds
1:00 AM 48.2 °F 46.4 °F 93% 30.09 in 0.9 mi Calm Calm - N/A   Scattered Clouds
1:30 AM 46.4 °F 46.4 °F 100% 30.09 in 0.9 mi Calm Calm - N/A   Scattered Clouds
2:00 AM 51.8 °F 50.0 °F 94% 30.09 in 1.9 mi ESE 5.8 mph - N/A   Scattered Clouds
2:30 AM 51.8 °F 50.0 °F 94% 30.09 in 1.9 mi SE 5.8 mph - N/A   Scattered Clouds
3:00 AM 49 °F 48 °F 94% 30.11 in 2 mi Calm Calm - -   Mist
3:00 AM 50.0 °F 48.2 °F 94% 30.09 in 1.9 mi Calm Calm - N/A   Scattered Clouds
3:30 AM 48.2 °F 46.4 °F 93% 30.09 in 1.9 mi Calm Calm - N/A   Scattered Clouds
4:00 AM 50.0 °F 50.0 °F 100% 30.09 in 2.5 mi Calm Calm - N/A   Scattered Clouds
5:00 AM 50.0 °F 48.2 °F 94% 30.09 in 2.5 mi Calm Calm - N/A   Scattered Clouds
5:30 AM 50.0 °F 48.2 °F 94% 30.09 in 2.5 mi Calm Calm - N/A   Scattered Clouds
6:00 AM 51 °F 49 °F 91% 30.11 in 2 mi Calm Calm - -   Mist
6:00 AM 50.0 °F 50.0 °F 100% 30.09 in 2.5 mi Calm Calm - N/A   Scattered Clouds
6:30 AM 50.0 °F 48.2 °F 94% 30.09 in 2.5 mi Calm Calm - N/A   Scattered Clouds
6:33 AM 50.0 °F 48.2 °F 94% 30.09 in 3.1 mi Calm Calm - N/A   Scattered Clouds
7:00 AM 50.0 °F 50.0 °F 100% 30.09 in 3.1 mi Calm Calm - N/A   Scattered Clouds
7:30 AM 51.8 °F 50.0 °F 94% 30.09 in 3.1 mi Calm Calm - N/A   Scattered Clouds
8:00 AM 51.8 °F 50.0 °F 94% 30.12 in 3.1 mi Calm Calm - N/A   Scattered Clouds
8:30 AM 53.6 °F 50.0 °F 88% 30.12 in 3.1 mi Calm Calm - N/A   Scattered Clouds
9:00 AM 54 °F 51 °F 87% 30.13 in 3 mi Calm Calm - -   Partly Cloudy
9:00 AM 53.6 °F 51.8 °F 94% 30.12 in 3.1 mi Calm Calm - N/A   Scattered Clouds
9:30 AM 55.4 °F 53.6 °F 94% 30.12 in 3.1 mi Calm Calm - N/A   Scattered Clouds
10:00 AM 57.2 °F 53.6 °F 88% 30.12 in 3.1 mi Calm Calm - N/A   Scattered Clouds
10:30 AM 59.0 °F 53.6 °F 82% 30.12 in 3.1 mi Calm Calm - N/A   Scattered Clouds
11:00 AM 59.0 °F 51.8 °F 77% 30.09 in 3.7 mi Calm Calm - N/A   Scattered Clouds
11:30 AM 60.8 °F 51.8 °F 72% 30.09 in 3.7 mi Calm Calm - N/A   Scattered Clouds
12:00 PM 63 °F 51 °F 57% 30.09 in 5 mi Calm Calm - -  
12:00 PM 62.6 °F 51.8 °F 68% 30.09 in 5.0 mi Calm Calm - N/A   Scattered Clouds
12:30 PM 64.4 °F 51.8 °F 64% 30.06 in 5.0 mi Calm Calm - N/A   Scattered Clouds
1:00 PM 66.2 °F 51.8 °F 60% 30.04 in 5.0 mi Calm Calm - N/A   Scattered Clouds
1:30 PM 64.4 °F 50.0 °F 59% 30.04 in 5.0 mi NNW 2.3 mph - N/A   Scattered Clouds
2:00 PM 64.4 °F 51.8 °F 64% 30.04 in 5.0 mi North 3.5 mph - N/A   Scattered Clouds
3:00 PM 65 °F 51 °F 52% 30.03 in 5 mi North 4.6 mph - -   Partly Cloudy
3:00 PM 64.4 °F 51.8 °F 64% 30.01 in 5.0 mi North 4.6 mph - N/A   Scattered Clouds
3:30 PM 62.6 °F 51.8 °F 68% 30.01 in 5.0 mi NNW 6.9 mph - N/A   Scattered Clouds
4:00 PM 62.6 °F 51.8 °F 68% 30.04 in 5.0 mi North 6.9 mph - N/A   Scattered Clouds
4:30 PM 60.8 °F 51.8 °F 72% 30.01 in 5.0 mi NNE 6.9 mph - N/A   Scattered Clouds
5:00 PM 59.0 °F 51.8 °F 77% 30.01 in 5.0 mi NNE 4.6 mph - N/A   Scattered Clouds
5:30 PM 57.2 °F 51.8 °F 82% 30.04 in 5.0 mi NNE 3.5 mph - N/A   Scattered Clouds
5:40 PM 57.2 °F 51.8 °F 82% 30.04 in 2.5 mi NNE 2.3 mph - N/A   Scattered Clouds
6:00 PM 56 °F 54 °F 90% 30.04 in 2 mi NNE 1.2 mph - -   Mist
6:00 PM 55.4 °F 51.8 °F 88% 30.04 in 2.5 mi NNE 1.2 mph - N/A   Scattered Clouds
6:09 PM 55.4 °F 51.8 °F 88% 30.04 in 3.1 mi Calm Calm - N/A   Scattered Clouds
6:30 PM 53.6 °F 50.0 °F 88% 30.04 in 3.1 mi Calm Calm - N/A   Scattered Clouds
7:00 PM 51.8 °F 50.0 °F 94% 30.04 in 3.1 mi Calm Calm - N/A   Scattered Clouds
7:30 PM 51.8 °F 50.0 °F 94% 30.04 in 3.1 mi Calm Calm - N/A   Scattered Clouds
8:00 PM 53.6 °F 50.0 °F 88% 30.04 in 3.1 mi Calm Calm - N/A   Scattered Clouds
8:30 PM 53.6 °F 51.8 °F 94% 30.04 in 3.1 mi Calm Calm - N/A   Scattered Clouds
9:00 PM 54 °F 52 °F 89% 30.04 in 3 mi Calm Calm - -   Partly Cloudy
9:00 PM 53.6 °F 51.8 °F 94% 30.04 in 3.1 mi Calm Calm - N/A   Scattered Clouds
9:30 PM 53.6 °F 51.8 °F 94% 30.04 in 3.1 mi Calm Calm - N/A   Scattered Clouds
9:55 PM 51.8 °F 50.0 °F 94% 30.04 in 1.9 mi Calm Calm - N/A   Mist
10:00 PM 50.0 °F 50.0 °F 100% 30.04 in 1.9 mi Calm Calm - N/A   Mist
10:30 PM 50.0 °F 48.2 °F 94% 30.04 in 1.9 mi Calm Calm - N/A   Mist
11:00 PM 50.0 °F 48.2 °F 94% 30.04 in 1.9 mi Calm Calm - N/A   Mist
11:30 PM 50.0 °F 48.2 °F 94% 30.04 in 1.9 mi Calm Calm - N/A   Mist